Retour au catalogue

DELTA 1 DEB

ActifSSO
NORAD 10768·DEBRIS·🇺🇸 United States

Lancé Jul 29, 1976 depuis Vandenberg Space Force Base

Loading…

Prochains Passages (prochaines 24 heures)

TLE

FraisSource: Space-Track

Époque: Sep 14, 2026, 03:04 UTC

1 10768U 76077BR  26257.12822671  .00000059  00000-0  88888-3 0  9997
2 10768 102.3416 329.9686 0074194 152.6426 237.5971 12.28580810247096

Suivez DELTA 1 DEB en temps réel avec AllMySat

Download on the App Store